STARLINK-2448

Last updated on Sat May 08 2021 00:02:04 GMT+0000 (Coordinated Universal Time)

1 48111U 21027V 21127.58334491 .00059774 00000-0 42746-3 0 9995 2 48111 53.0469 191.7498 0002564 21.4887 278.9363 15.73184232 1779

Satellite not in orbit